Regional Weather Roundup
Issued by NWS

Home | Current Version | Previous Version | Text Only | Print | Product List | Glossary Off
Versions: 1 2 3 4 5 6 7 8 9 10 11 12 13 14 15 16 17 18 19 20 21 22 23 24 25 26 27 28 29 30 31 32 33 34 35 36 37 38 39 40 41 42 43 44 45 46 47 48 49 50

000
ASUS43 KDTX 201010
RWRMI
MICHIGAN HOURLY REGIONAL WEATHER ROUNDUP
NATIONAL WEATHER SERVICE DETROIT/PONTIAC MI
600 AM EDT WED AUG 20 2014

NOTE: "FAIR" INDICATES FEW OR NO CLOUDS BELOW 12,000 FEET WITH NO
SIGNIFICANT WEATHER AND/OR OBSTRUCTION TO VISIBILITY.

MIZ047>049-052>055-059>063-066>070-074>076-081>083-201100-
SOUTHEAST LOWER MICHIGAN

CITY           SKY/WX    TMP DP  RH WIND       PRES   REMARKS
ADRIAN         PTCLDY    63  63 100 CALM      29.82R FOG
ALMA           FOG       66  65  96 CALM      29.79R VSB 1/2
ANN ARBOR      CLOUDY    65  63  93 CALM      29.81R FOG
BAD AXE        CLOUDY    65  65 100 CALM      29.80R FOG
CARO           CLOUDY    66  65  97 CALM      29.79R
DETROIT CITY   MOCLDY    70  65  84 S3        29.80R
DETROIT        CLOUDY    67  66  97 S5        29.81R FOG
FLINT          CLOUDY    67  63  87 S5        29.80R
GROSSE ILE     MOCLDY    70  66  88 SW7       29.79S
HILLSDALE      CLEAR     66  66 100 CALM      29.83R FOG
HOWELL         CLOUDY    64  64  98 CALM      29.81R

CITY           SKY/WX    TMP DP  RH WIND       PRES   REMARKS
JACKSON        PTCLDY    66  64  93 SW3       29.81R FOG
LAMBERTVILLE   MOCLDY    68  64  88 SW6       29.81S
LANSING        CLOUDY    65  63  93 CALM      29.81R FOG
LAPEER         CLOUDY    63  61  96 CALM      29.80S FOG
MASON          MOCLDY    63  62  97 CALM      29.80R FOG
MONROE         MOCLDY    66  64  94 CALM      29.79S FOG
MT. CLEMENS    CLOUDY    68  67  99 S2        29.79S
PONTIAC        CLOUDY    65  63  93 CALM      29.80S
PORT HOPE        N/A     67  64  90 VRB3      29.78R
PORT HURON     FOG       64  64 100 CALM      29.80S VSB 3/4
TRI CITIES     FOG       68  66  93 CALM      29.79R VSB 1/2
TROY           CLOUDY    68  65  91 CALM      29.82R FOG
SAGINAW HB     CLOUDY    68  68 100 CALM      29.79R FOG
$$
MIZ043>046-050>051-056>058-064>065-071>073-077>080-201100-
SOUTHWEST LOWER MICHIGAN

CITY           SKY/WX    TMP DP  RH WIND       PRES   REMARKS
BATTLE CREEK   FOG       66  65  96 SW6       29.82R VSB 1/4
BENTON HARBOR  PTCLDY    64  63  96 CALM      29.81R FOG
BIG RAPIDS     CLOUDY    64  64 100 CALM      29.78R FOG
COLDWATER      CLEAR     66  65  96 SW5       29.82R FOG
FREMONT        FOG       62  62  99 CALM      29.78S VSB 1/4
HOLLAND        CLEAR     65  63  93 CALM      29.81R FOG
GRAND RAPIDS   MOCLDY    66  66 100 W5        29.80R FOG
IONIA          FOG       65  64  97 W5        29.79R VSB 1
KALAMAZOO      CLEAR     67  65  93 CALM      29.81R FOG
LUDINGTON      FOG       63  62  97 CALM      29.78S VSB 1/4
MARSHALL       PTCLDY    65  64  98 SW5       29.80S FOG
MOUNT PLEASANT CLOUDY    67  66  97 CALM      29.78R FOG
MUSKEGON       CLEAR     65  62  90 NW3       29.79R
SOUTH HAVEN    CLOUDY    65  65 100 CALM      29.80R FOG
$$
MIZ016>042-201100-
NORTHERN LOWER MICHIGAN

CITY           SKY/WX    TMP DP  RH WIND       PRES   REMARKS
ALPENA         CLEAR     65  64  97 SW5       29.76R FOG
BEAVER ISLAND  FOG       63  62  97 E3        29.75R VSB 3/4
BELLAIRE       CLOUDY    66  64  90 CALM      29.75R
CADILLAC       CLOUDY    62  62 100 CALM      29.78S
CHARLEVOIX     CLOUDY    64  64 100 SW3       29.78R
FRANKFORT      CLOUDY    64  61  91 CALM      29.77R FOG
GAYLORD        CLOUDY    64  63  96 SW6       29.77S FOG
GRAYLING       CLOUDY    64  64 100 CALM      29.78S FOG
HARBOR SPRINGS CLOUDY    64  63  97 CALM      29.75R FOG
HOUGHTON LAKE  CLOUDY    65  64  97 W5        29.79R
MANISTEE       CLOUDY    63  61  94 SW3       29.79R
OSCODA         CLOUDY    66  66 100 CALM      29.77R FOG
PELLSTON       CLOUDY    61  61 100 CALM      29.76R
ROGERS CITY    FOG       63  63 100 MISG      29.77R VSB 1/4
TRAVERSE CITY  CLOUDY    66  62  87 W7        29.75R
$$
MIZ007>008-015-201100-
EASTERN UPPER MICHIGAN

CITY           SKY/WX    TMP DP  RH WIND       PRES   REMARKS
KINROSS        CLOUDY    61  59  94 CALM      29.77R VSB 1/2
MACKINAC ISLAN FOG       59  59 100 NE5       29.76R VSB 1/2
NEWBERRY       FOG       58  58 100 E3        29.76R VSB 1/2
S. S. MARIE    FOG       61  59  93 CALM      29.76R VSB 1
MUNISING         N/A     60  58  92 N9        29.77R
$$
MIZ004>006-011>014-085-201100-
CENTRAL UPPER MICHIGAN

CITY           SKY/WX    TMP DP  RH WIND       PRES   REMARKS
MANISTIQUE     CLOUDY    60  60 100 N6        29.75S FOG
ESCANABA       CLOUDY    61  57  88 NW5       29.77R
MENOMINEE      CLOUDY    63  57  82 CALM      29.77S
SAWYER-GWINN   FOG       58  57  97 NW5       29.79R VSB 1
$$
MIZ001>003-009>011-084-201100-
WESTERN UPPER MICHIGAN

CITY           SKY/WX    TMP DP  RH WIND       PRES   REMARKS
IRON MOUNTAIN  CLOUDY    59  56  89 NW6       29.79R
HOUGHTON       FOG       56  55  97 NW9       29.80S VSB 1/2
COPPER HARBOR    N/A     56  55  97 N10       29.78S
IRONWOOD       CLOUDY    55  55 100 CALM      29.82S VSB 1/2
$$

ABBREVIATIONS USED IN REMARKS
   TC - TEMPERATURE IN CELSIUS
  WCI - WIND CHILL INDEX
   HX - HEAT INDEX
  VSB - VISIBILITY




USA.gov is the U.S. government's official web portal to all federal, state and local government web resources and services.